Simultaneous Nadir Overpasses (SNOs) Predictions

Prediction of SNOs between AQUA and NPP Satellite Orbit:

Table of predicted SNOs for the next 14.0 days since TLE Epoch: 7/13/2018
Index Date (AQUA) Time (AQUA) Lat,Lon (AQUA) SZA (AQUA ) Date (NPP) Time (NPP) Lat,Lon (NPP) SZA (NPP ) Distance(km) Time Diff (sec)
1 07/14/2018 14:05:59 -74.80, 24.34 102.28 07/14/2018 14:04:53 -74.80, 24.33 102.22 0.46 66
2 07/14/2018 14:55:03 75.85,-165.13 76.52 07/14/2018 14:55:15 75.84,-165.21 76.53 2.51 12
3 07/17/2018 06:22:30 -74.93, 140.53 101.99 07/17/2018 06:21:44 -74.92, 140.45 101.93 2.59 46
4 07/17/2018 07:11:27 76.31, -47.82 76.41 07/17/2018 07:11:58 76.32, -47.78 76.37 1.07 31
5 07/19/2018 22:38:52 -75.56,-101.92 102.24 07/19/2018 22:38:25 -75.56,-101.87 102.23 1.33 27
6 07/19/2018 23:28:00 76.38, 68.27 76.80 07/19/2018 23:28:51 76.38, 68.23 76.77 1.14 51
7 07/22/2018 14:55:24 -75.68, 14.29 101.86 07/22/2018 14:55:17 -75.68, 14.27 101.86 0.30 7
8 07/22/2018 15:44:25 76.84,-174.32 76.77 07/22/2018 15:45:35 76.85,-174.22 76.68 2.89 70
9 07/25/2018 06:22:46 74.88, -39.67 79.60 07/25/2018 06:21:42 74.88, -39.63 79.64 1.25 64




NCC Satellite Simultaneous Nadir Overpasses (SNOs) Prediction Service
